Location: Unspecified
(40.7945°N, 0.0000°E)
Time: 08:03:11
(UTC+00:00)

deb Explorer IX - Pass Details

Date: 30 January 2021
Orbit: 537 x 1103 km, 38.8° (Epoch: 23 February)

Event Time Altitude Azimuth Distance (km) Brightness Sun altitude
Rises 19:15:49 0° 279° (W) 3,733 ? -23.0°
Reaches altitude 10° 19:18:44 10° 274° (W) 2,705 ? -23.5°
Maximum altitude 19:24:55 49° 202° (SSW) 1,108 ? -24.7°
Enters shadow 19:26:40 37° 156° (SSE) 1,272 ? -25.0°
